Regional Weather Roundup
Issued by NWS

Home | Current Version | Previous Version | Text Only | Print | Product List | Glossary Off
Versions: 1 2 3 4 5 6 7 8 9 10 11 12 13 14 15 16 17 18 19 20 21 22 23 24 25 26 27 28 29 30 31 32 33 34 35 36 37 38 39 40 41 42 43 44 45 46 47 48 49 50

000
ASUS43 KDTX 251310
RWRMI
MICHIGAN HOURLY REGIONAL WEATHER ROUNDUP
NATIONAL WEATHER SERVICE DETROIT/PONTIAC MI
900 AM EDT SUN JUN 25 2017

NOTE: "FAIR" INDICATES FEW OR NO CLOUDS BELOW 12,000 FEET WITH NO
SIGNIFICANT WEATHER AND/OR OBSTRUCTION TO VISIBILITY.

MIZ047>049-052>055-059>063-066>070-074>076-081>083-251400-
SOUTHEAST LOWER MICHIGAN

CITY           SKY/WX    TMP DP  RH WIND       PRES   REMARKS
ADRIAN         SUNNY     62  51  67 NW13      30.04R
ALMA           MOSUNNY   59  52  77 W13G18    29.99S
ANN ARBOR      SUNNY     62  53  72 SW10      30.01R
BAD AXE        SUNNY     59  52  77 SW12      29.95S
CARO           MOSUNNY   59  52  77 SW12      29.96S
DETROIT CITY   MOSUNNY   64  50  60 W10G16    30.00S
DETROIT        MOSUNNY   63  52  67 W10       30.02R
FLINT          SUNNY     60  49  66 W14       29.99R
GROSSE ILE     MOSUNNY   62  53  71 W5        30.01R
HILLSDALE      MOSUNNY   59  48  67 W13G18    30.04R
HOWELL         SUNNY     60  47  62 W13G20    30.00S

CITY           SKY/WX    TMP DP  RH WIND       PRES   REMARKS
JACKSON        MOSUNNY   59  49  69 W13       30.03R
LAMBERTVILLE   SUNNY     63  50  62 W12       30.02S
LANSING        MOSUNNY   62  48  60 W15       30.02R
LAPEER         FAIR      61  49  64 W13G20    29.98R
MASON          MOSUNNY   60  50  69 W13       30.02R
MONROE         SUNNY     63  51  66 W9        30.01S
MT. CLEMENS    PTSUNNY   64  51  64 W12       29.97F
PONTIAC        PTSUNNY   61  48  62 W14       29.98S
PORT HOPE        N/A     61  53  75 W13G18    29.92R
PORT HURON     PTSUNNY   61  48  63 W5        29.98S
TRI CITIES     PTSUNNY   58  52  80 W13       29.98R
MIDLAND        FAIR      60  50  69 W8        29.96S
TROY           PTSUNNY   64  47  54 SW8       30.01S
SAGINAW HB     MOSUNNY   59  48  67 W12       29.96S
$$
MIZ043>046-050>051-056>058-064>065-071>073-077>080-251400-
SOUTHWEST LOWER MICHIGAN

CITY           SKY/WX    TMP DP  RH WIND       PRES   REMARKS
BATTLE CREEK   MOSUNNY   59  52  77 W14G21    30.05R
BENTON HARBOR  MOSUNNY   62  49  62 W20       30.07R
BIG RAPIDS     PTSUNNY   57  49  75 W12       29.97S
COLDWATER      MOSUNNY   60  49  67 W14G21    30.06R
FREMONT        FAIR      57  50  77 W6        29.99S
HOLLAND        MOSUNNY   62  51  67 W15       30.04R
GRAND RAPIDS   MOSUNNY   60  51  72 W12       30.01S
IONIA          FAIR      60  49  68 W9        30.01R
KALAMAZOO      MOSUNNY   61  49  64 W15G21    30.06R
LUDINGTON      RAIN      56  53  92 W8G21     29.97S
MARSHALL       MOSUNNY   60  50  69 W14       30.04R
MOUNT PLEASANT SUNNY     59  49  69 W12       29.97R
MUSKEGON       CLOUDY    61  51  70 W9        30.01S
SOUTH HAVEN    MOSUNNY   63  52  68 W12       30.06R
$$
MIZ016>042-251400-
NORTHERN LOWER MICHIGAN

CITY           SKY/WX    TMP DP  RH WIND       PRES   REMARKS
ALPENA         CLOUDY    57  56  96 W6        29.92R
BEAVER ISLAND  CLOUDY    55  54  94 CALM      29.93S
BELLAIRE       PTSUNNY   58  52  79 CALM      29.93S
CADILLAC       CLOUDY    55  51  87 W12       29.95R
CHARLEVOIX     PTSUNNY   58  55  88 W10       29.95R
FRANKFORT      CLOUDY    57  51  81 W8G16     29.95R
GAYLORD        PTSUNNY   56  50  80 W7        29.93R
GRAYLING       CLOUDY    53  51  92 SW5       29.95R
HARBOR SPRINGS MOSUNNY   58  55  91 W6        29.92R
HOUGHTON LAKE  CLOUDY    56  50  80 W8        29.95S
MANISTEE       LGT RAIN  56  52  86 W13       29.96R
OSCODA         CLOUDY    59  53  82 W14       29.92S
PELLSTON       MOSUNNY   59  53  80 VRB3      29.92S
ROGERS CITY    CLOUDY    58  54  87 NW5       29.92R
TRAVERSE CITY  PTSUNNY   59  52  77 VRB5      29.92R
$$
MIZ007>008-015-251400-
EASTERN UPPER MICHIGAN

CITY           SKY/WX    TMP DP  RH WIND       PRES   REMARKS
KINROSS        CLOUDY    52  51  97 NW5       29.92R
MACKINAC ISLAN MOSUNNY   56  56 100 NE5       29.91F
NEWBERRY       CLOUDY    52  51  97 NW3       29.93R
S. S. MARIE    CLOUDY    54  51  90 W5        29.91R
MUNISING         N/A     50  50 100 N10       29.95R
$$
MIZ004>006-011>014-085-251400-
CENTRAL UPPER MICHIGAN

CITY           SKY/WX    TMP DP  RH WIND       PRES   REMARKS
MANISTIQUE     CLOUDY    54  51  90 N6        29.93S
ESCANABA       CLOUDY    57  53  86 VRB5      29.94S
MENOMINEE      PTSUNNY   56  52  86 N8        29.97R
SAWYER-GWINN   CLOUDY    52  52 100 N6        29.96R
$$
MIZ001>003-009>011-084-251400-
WESTERN UPPER MICHIGAN

CITY           SKY/WX    TMP DP  RH WIND       PRES   REMARKS
IRON MOUNTAIN  PTSUNNY   55  50  83 NW12      29.96R
HOUGHTON       PTSUNNY   53  51  93 NW8       29.96R FOG
COPPER HARBOR    N/A     48  47  96 N7        29.97R
IRONWOOD       CLOUDY    53  52  96 W3        30.01R
$$

ABBREVIATIONS USED IN REMARKS
   TC - TEMPERATURE IN CELSIUS
  WCI - WIND CHILL INDEX
   HX - HEAT INDEX
  VSB - VISIBILITY





USA.gov is the U.S. government's official web portal to all federal, state and local government web resources and services.